,,PressureMeas_1m,,PRMeasQMR101_1,,RHStat155_1m_1,,SRMeasQMS101R_1m,,TAStat155_1m_1,,GenWind_1,,GenWind_1,
2017-06-09, 07:00:06,VALID,917.113,VALID,0.0,VALID,98.759,VALID,89.798,VALID,20.397,VALID,145.0,VALID,1.9,
2017-06-09, 07:01:06,VALID,917.133,VALID,0.0,VALID,98.728,VALID,84.298,VALID,20.35,VALID,144.0,VALID,1.999,
2017-06-09, 07:02:06,VALID,917.161,VALID,0.0,VALID,98.744,VALID,107.852,VALID,20.372,VALID,139.0,VALID,1.912,
2017-06-09, 07:03:06,VALID,917.17,VALID,0.0,VALID,98.778,VALID,115.449,VALID,20.415,VALID,138.0,VALID,1.315,
2017-06-09, 07:04:06,VALID,917.194,VALID,0.0,VALID,98.762,VALID,113.89,VALID,20.442,VALID,125.0,VALID,1.775,
2017-06-09, 07:05:06,VALID,917.205,VALID,0.0,VALID,98.73,VALID,115.574,VALID,20.427,VALID,125.0,VALID,2.069,
2017-06-09, 07:06:06,VALID,917.214,VALID,0.0,VALID,98.741,VALID,126.188,VALID,20.446,VALID,119.0,VALID,2.133,
2017-06-09, 07:07:06,VALID,917.216,VALID,0.0,VALID,98.724,VALID,128.928,VALID,20.467,VALID,127.0,VALID,1.76,
2017-06-09, 07:08:06,VALID,917.219,VALID,0.0,VALID,98.708,VALID,131.027,VALID,20.48,VALID,130.0,VALID,1.889,
2017-06-09, 07:09:06,VALID,917.231,VALID,0.0,VALID,98.663,VALID,135.686,VALID,20.481,VALID,135.0,VALID,2.243,
2017-06-09, 07:10:06,VALID,917.237,VALID,0.0,VALID,98.609,VALID,138.099,VALID,20.505,VALID,129.0,VALID,1.882,
2017-06-09, 07:11:06,VALID,917.267,VALID,0.0,VALID,98.587,VALID,141.477,VALID,20.568,VALID,135.0,VALID,1.987,
2017-06-09, 07:12:06,VALID,917.275,VALID,0.0,VALID,98.485,VALID,144.955,VALID,20.546,VALID,150.0,VALID,2.172,
2017-06-09, 07:13:06,VALID,917.3,VALID,0.0,VALID,98.406,VALID,138.987,VALID,20.515,VALID,149.0,VALID,2.352,
2017-06-09, 07:14:06,VALID,917.322,VALID,0.0,VALID,98.327,VALID,145.431,VALID,20.468,VALID,145.0,VALID,2.319,
2017-06-09, 07:15:06,VALID,917.334,VALID,0.0,VALID,98.337,VALID,149.973,VALID,20.498,VALID,140.0,VALID,2.337,
2017-06-09, 07:16:06,VALID,917.322,VALID,0.0,VALID,98.281,VALID,151.013,VALID,20.492,VALID,148.0,VALID,2.306,
2017-06-09, 07:17:06,VALID,917.34,VALID,0.0,VALID,98.232,VALID,153.047,VALID,20.484,VALID,147.0,VALID,1.862,
2017-06-09, 07:18:06,VALID,917.307,VALID,0.0,VALID,98.266,VALID,155.629,VALID,20.533,VALID,130.0,VALID,1.342,
2017-06-09, 07:19:06,VALID,917.301,VALID,0.0,VALID,98.267,VALID,159.032,VALID,20.58,VALID,129.0,VALID,1.436,
2017-06-09, 07:20:06,VALID,917.291,VALID,0.0,VALID,98.114,VALID,163.543,VALID,20.568,VALID,134.0,VALID,1.318,
2017-06-09, 07:21:06,VALID,917.305,VALID,0.0,VALID,98.015,VALID,168.131,VALID,20.634,VALID,158.0,VALID,1.457,
2017-06-09, 07:22:06,VALID,917.31,VALID,0.0,VALID,97.934,VALID,172.974,VALID,20.671,VALID,148.0,VALID,1.777,
2017-06-09, 07:23:06,VALID,917.351,VALID,0.0,VALID,97.798,VALID,176.023,VALID,20.689,VALID,137.0,VALID,0.925,
2017-06-09, 07:24:06,VALID,917.388,VALID,0.0,VALID,97.876,VALID,180.49,VALID,20.759,VALID,138.0,VALID,0.971,
2017-06-09, 07:25:06,VALID,917.415,VALID,0.0,VALID,97.761,VALID,184.832,VALID,20.787,VALID,127.0,VALID,0.865,
2017-06-09, 07:26:06,VALID,917.443,VALID,0.0,VALID,97.771,VALID,188.5,VALID,20.876,VALID,98.0,VALID,0.798,
2017-06-09, 07:27:06,VALID,917.458,VALID,0.0,VALID,97.808,VALID,192.733,VALID,20.996,VALID,76.0,VALID,0.702,
2017-06-09, 07:28:06,VALID,917.495,VALID,0.0,VALID,97.674,VALID,196.95,VALID,21.091,VALID,95.0,VALID,0.596,
2017-06-09, 07:29:06,VALID,917.51,VALID,0.0,VALID,97.199,VALID,200.249,VALID,21.136,VALID,127.0,VALID,0.62,
2017-06-09, 07:30:06,VALID,917.538,VALID,0.0,VALID,96.88,VALID,204.13,VALID,21.206,VALID,112.0,VALID,0.736,
2017-06-09, 07:31:06,VALID,917.547,VALID,0.0,VALID,96.641,VALID,206.627,VALID,21.31,VALID,140.0,VALID,1.024,
2017-06-09, 07:32:06,VALID,917.562,VALID,0.0,VALID,95.765,VALID,207.362,VALID,21.282,VALID,170.0,VALID,1.334,
2017-06-09, 07:33:06,VALID,917.571,VALID,0.0,VALID,95.304,VALID,207.036,VALID,21.249,VALID,156.0,VALID,1.682,
2017-06-09, 07:34:06,VALID,917.589,VALID,0.0,VALID,94.887,VALID,209.269,VALID,21.156,VALID,162.0,VALID,1.319,
2017-06-09, 07:35:06,VALID,917.6,VALID,0.0,VALID,95.091,VALID,209.436,VALID,21.116,VALID,141.0,VALID,0.913,
2017-06-09, 07:36:06,VALID,917.62,VALID,0.0,VALID,95.49,VALID,210.222,VALID,21.12,VALID,149.0,VALID,0.998,
2017-06-09, 07:37:06,VALID,917.651,VALID,0.0,VALID,95.507,VALID,212.829,VALID,21.134,VALID,155.0,VALID,0.842,
2017-06-09, 07:38:06,VALID,917.675,VALID,0.0,VALID,95.374,VALID,217.658,VALID,21.17,VALID,143.0,VALID,0.438,
2017-06-09, 07:39:06,VALID,917.706,VALID,0.0,VALID,95.853,VALID,221.3,VALID,21.312,VALID,143.0,VALID,0.566,
2017-06-09, 07:40:06,VALID,917.713,VALID,0.0,VALID,95.199,VALID,221.602,VALID,21.397,VALID,161.0,VALID,0.772,
2017-06-09, 07:41:06,VALID,917.736,VALID,0.0,VALID,94.931,VALID,208.032,VALID,21.497,VALID,180.0,VALID,0.771,
2017-06-09, 07:42:06,VALID,917.73,VALID,0.0,VALID,93.894,VALID,217.59,VALID,21.518,VALID,160.0,VALID,1.181,
2017-06-09, 07:43:06,VALID,917.73,VALID,0.0,VALID,93.642,VALID,192.929,VALID,21.459,VALID,157.0,VALID,1.113,
2017-06-09, 07:44:06,VALID,917.743,VALID,0.0,VALID,94.022,VALID,205.589,VALID,21.45,VALID,164.0,VALID,1.014,
2017-06-09, 07:45:06,VALID,917.749,VALID,0.0,VALID,93.649,VALID,233.529,VALID,21.424,VALID,159.0,VALID,0.661,
2017-06-09, 07:46:06,VALID,917.754,VALID,0.0,VALID,94.118,VALID,246.196,VALID,21.458,VALID,205.0,VALID,0.365,
2017-06-09, 07:47:06,VALID,917.775,VALID,0.0,VALID,94.166,VALID,250.639,VALID,21.594,VALID,187.0,VALID,0.634,
2017-06-09, 07:48:06,VALID,917.793,VALID,0.0,VALID,93.57,VALID,251.14,VALID,21.698,VALID,173.0,VALID,0.655,
2017-06-09, 07:49:06,VALID,917.804,VALID,0.0,VALID,92.973,VALID,240.208,VALID,21.737,VALID,173.0,VALID,0.438,
2017-06-09, 07:50:06,VALID,917.82,VALID,0.0,VALID,93.013,VALID,247.802,VALID,21.801,VALID,190.0,VALID,0.27,
2017-06-09, 07:51:06,VALID,917.84,VALID,0.0,VALID,93.268,VALID,260.354,VALID,21.941,VALID,174.0,VALID,0.387,
2017-06-09, 07:52:06,VALID,917.848,VALID,0.0,VALID,92.812,VALID,266.363,VALID,22.078,VALID,180.0,VALID,0.369,
2017-06-09, 07:53:06,VALID,917.853,VALID,0.0,VALID,91.952,VALID,271.049,VALID,22.135,VALID,170.0,VALID,0.18,
2017-06-09, 07:54:06,VALID,917.864,VALID,0.0,VALID,91.996,VALID,284.004,VALID,22.264,VALID,260.0,VALID,0.123,
2017-06-09, 07:55:06,VALID,917.875,VALID,0.0,VALID,91.763,VALID,296.801,VALID,22.421,VALID,231.0,VALID,0.218,
2017-06-09, 07:56:06,VALID,917.888,VALID,0.0,VALID,90.142,VALID,295.427,VALID,22.447,VALID,210.0,VALID,0.404,
2017-06-09, 07:57:06,VALID,917.889,VALID,0.0,VALID,90.553,VALID,289.215,VALID,22.368,VALID,183.0,VALID,0.547,
2017-06-09, 07:58:06,VALID,917.906,VALID,0.0,VALID,90.314,VALID,295.657,VALID,22.382,VALID,222.0,VALID,0.074,
2017-06-09, 07:59:06,VALID,917.911,VALID,0.0,VALID,90.449,VALID,301.398,VALID,22.507,VALID,242.0,VALID,0.005,
2017-06-09, 08:00:06,VALID,917.92,VALID,0.0,VALID,90.468,VALID,268.903,VALID,22.645,VALID,179.0,VALID,0.424,
2017-06-09, 08:01:06,VALID,917.918,VALID,0.0,VALID,89.468,VALID,226.191,VALID,22.657,VALID,168.0,VALID,0.478,
2017-06-09, 08:02:06,VALID,917.915,VALID,0.0,VALID,89.046,VALID,302.0,VALID,22.507,VALID,150.0,VALID,0.497,
2017-06-09, 08:03:06,VALID,917.917,VALID,0.0,VALID,89.371,VALID,318.828,VALID,22.409,VALID,137.0,VALID,0.743,
2017-06-09, 08:04:06,VALID,917.901,VALID,0.0,VALID,89.859,VALID,324.608,VALID,22.337,VALID,120.0,VALID,0.694,
2017-06-09, 08:05:06,VALID,917.887,VALID,0.0,VALID,91.053,VALID,338.456,VALID,22.428,VALID,120.0,VALID,0.695,
2017-06-09, 08:06:06,VALID,917.907,VALID,0.0,VALID,90.222,VALID,337.189,VALID,22.566,VALID,127.0,VALID,1.091,
2017-06-09, 08:07:06,VALID,917.923,VALID,0.0,VALID,88.985,VALID,360.738,VALID,22.513,VALID,141.0,VALID,1.258,
2017-06-09, 08:08:06,VALID,917.936,VALID,0.0,VALID,88.51,VALID,363.125,VALID,22.377,VALID,146.0,VALID,1.569,
2017-06-09, 08:09:06,VALID,917.952,VALID,0.0,VALID,89.989,VALID,333.031,VALID,22.325,VALID,129.0,VALID,1.386,
2017-06-09, 08:10:06,VALID,917.964,VALID,0.0,VALID,90.945,VALID,243.687,VALID,22.435,VALID,102.0,VALID,0.995,
2017-06-09, 08:11:06,VALID,917.977,VALID,0.0,VALID,89.685,VALID,168.751,VALID,22.477,VALID,86.0,VALID,1.739,
2017-06-09, 08:12:06,VALID,917.985,VALID,0.0,VALID,90.268,VALID,163.084,VALID,22.354,VALID,65.0,VALID,1.353,
2017-06-09, 08:13:06,VALID,917.989,VALID,0.0,VALID,89.911,VALID,167.485,VALID,22.264,VALID,88.0,VALID,1.314,
2017-06-09, 08:14:06,VALID,918.012,VALID,0.0,VALID,90.293,VALID,202.397,VALID,22.203,VALID,73.0,VALID,0.735,
2017-06-09, 08:15:06,VALID,918.011,VALID,0.0,VALID,91.396,VALID,324.027,VALID,22.277,VALID,52.0,VALID,1.179,
2017-06-09, 08:16:06,VALID,918.033,VALID,0.0,VALID,90.056,VALID,391.295,VALID,22.408,VALID,68.0,VALID,1.141,
2017-06-09, 08:17:06,VALID,918.032,VALID,0.0,VALID,89.784,VALID,387.168,VALID,22.414,VALID,60.0,VALID,1.163,
2017-06-09, 08:18:06,VALID,918.045,VALID,0.0,VALID,89.42,VALID,377.655,VALID,22.521,VALID,74.0,VALID,1.042,
2017-06-09, 08:19:06,VALID,918.048,VALID,0.0,VALID,88.94,VALID,381.256,VALID,22.58,VALID,57.0,VALID,1.458,
2017-06-09, 08:20:06,VALID,918.05,VALID,0.0,VALID,88.738,VALID,379.617,VALID,22.676,VALID,95.0,VALID,1.047,
2017-06-09, 08:21:06,VALID,918.063,VALID,0.0,VALID,88.077,VALID,377.301,VALID,22.755,VALID,128.0,VALID,0.835,
2017-06-09, 08:22:06,VALID,918.071,VALID,0.0,VALID,89.051,VALID,381.345,VALID,22.837,VALID,89.0,VALID,1.183,
2017-06-09, 08:23:06,VALID,918.072,VALID,0.0,VALID,87.291,VALID,387.11,VALID,22.892,VALID,75.0,VALID,1.172,
2017-06-09, 08:24:06,VALID,918.088,VALID,0.0,VALID,86.766,VALID,392.324,VALID,22.787,VALID,81.0,VALID,0.955,
2017-06-09, 08:25:06,VALID,918.1,VALID,0.0,VALID,88.2,VALID,395.531,VALID,22.76,VALID,87.0,VALID,0.641,
2017-06-09, 08:26:06,VALID,918.092,VALID,0.0,VALID,87.983,VALID,398.748,VALID,22.841,VALID,78.0,VALID,0.837,
2017-06-09, 08:27:06,VALID,918.095,VALID,0.0,VALID,88.608,VALID,402.031,VALID,22.977,VALID,43.0,VALID,1.114,
2017-06-09, 08:28:06,VALID,918.096,VALID,0.0,VALID,87.218,VALID,405.506,VALID,23.097,VALID,36.0,VALID,1.05,
2017-06-09, 08:29:06,VALID,918.099,VALID,0.0,VALID,86.795,VALID,408.839,VALID,23.234,VALID,31.0,VALID,1.112,
2017-06-09, 08:30:06,VALID,918.083,VALID,0.0,VALID,86.81,VALID,412.371,VALID,23.377,VALID,32.0,VALID,0.923,
2017-06-09, 08:31:06,VALID,918.077,VALID,0.0,VALID,85.737,VALID,415.808,VALID,23.586,VALID,19.0,VALID,0.959,
2017-06-09, 08:32:06,VALID,918.059,VALID,0.0,VALID,85.303,VALID,418.271,VALID,23.792,VALID,27.0,VALID,1.025,
2017-06-09, 08:33:06,VALID,918.051,VALID,0.0,VALID,83.832,VALID,422.618,VALID,23.889,VALID,61.0,VALID,0.83,
2017-06-09, 08:34:06,VALID,918.043,VALID,0.0,VALID,83.924,VALID,425.978,VALID,23.72,VALID,58.0,VALID,0.653,
2017-06-09, 08:35:06,VALID,918.023,VALID,0.0,VALID,84.82,VALID,428.914,VALID,23.721,VALID,57.0,VALID,0.73,
2017-06-09, 08:36:06,VALID,918.01,VALID,0.0,VALID,84.195,VALID,433.696,VALID,23.711,VALID,57.0,VALID,0.512,
2017-06-09, 08:37:06,VALID,918.003,VALID,0.0,VALID,84.547,VALID,438.867,VALID,23.732,VALID,87.0,VALID,0.584,
2017-06-09, 08:38:06,VALID,917.993,VALID,0.0,VALID,83.367,VALID,443.774,VALID,23.799,VALID,113.0,VALID,1.128,
2017-06-09, 08:39:06,VALID,917.986,VALID,0.0,VALID,83.473,VALID,447.391,VALID,23.868,VALID,161.0,VALID,0.871,
2017-06-09, 08:40:06,VALID,917.98,VALID,0.0,VALID,83.062,VALID,449.095,VALID,23.946,VALID,179.0,VALID,0.575,
2017-06-09, 08:41:06,VALID,917.973,VALID,0.0,VALID,82.91,VALID,454.174,VALID,24.098,VALID,177.0,VALID,0.814,
2017-06-09, 08:42:06,VALID,917.966,VALID,0.0,VALID,81.01,VALID,457.983,VALID,24.227,VALID,170.0,VALID,0.871,
2017-06-09, 08:43:06,VALID,917.947,VALID,0.0,VALID,80.336,VALID,461.884,VALID,24.305,VALID,167.0,VALID,0.171,
2017-06-09, 08:44:06,VALID,917.935,VALID,0.0,VALID,80.113,VALID,465.503,VALID,24.464,VALID,182.0,VALID,0.252,
2017-06-09, 08:45:06,VALID,917.909,VALID,0.0,VALID,79.907,VALID,469.047,VALID,24.568,VALID,152.0,VALID,1.24,
2017-06-09, 08:46:06,VALID,917.906,VALID,0.0,VALID,78.446,VALID,471.997,VALID,24.348,VALID,153.0,VALID,0.87,
2017-06-09, 08:47:06,VALID,917.903,VALID,0.0,VALID,79.253,VALID,474.532,VALID,24.154,VALID,134.0,VALID,0.973,
2017-06-09, 08:48:06,VALID,917.904,VALID,0.0,VALID,77.98,VALID,476.387,VALID,24.163,VALID,149.0,VALID,0.36,
2017-06-09, 08:49:06,VALID,917.894,VALID,0.0,VALID,77.688,VALID,479.72,VALID,24.33,VALID,147.0,VALID,0.839,
2017-06-09, 08:50:06,VALID,917.908,VALID,0.0,VALID,78.831,VALID,484.158,VALID,24.365,VALID,142.0,VALID,1.375,
2017-06-09, 08:51:06,VALID,917.909,VALID,0.0,VALID,80.2,VALID,487.086,VALID,24.227,VALID,126.0,VALID,1.016,
2017-06-09, 08:52:06,VALID,917.92,VALID,0.0,VALID,80.851,VALID,491.296,VALID,24.278,VALID,119.0,VALID,1.086,
2017-06-09, 08:53:06,VALID,917.934,VALID,0.0,VALID,80.765,VALID,496.483,VALID,24.464,VALID,137.0,VALID,0.737,
2017-06-09, 08:54:06,VALID,917.947,VALID,0.0,VALID,78.856,VALID,500.657,VALID,24.528,VALID,140.0,VALID,1.02,
2017-06-09, 08:55:06,VALID,917.958,VALID,0.0,VALID,78.982,VALID,504.226,VALID,24.545,VALID,148.0,VALID,1.338,
2017-06-09, 08:56:06,VALID,917.965,VALID,0.0,VALID,79.235,VALID,508.646,VALID,24.499,VALID,128.0,VALID,1.163,
2017-06-09, 08:57:06,VALID,917.973,VALID,0.0,VALID,79.575,VALID,512.075,VALID,24.591,VALID,137.0,VALID,0.864,
2017-06-09, 08:58:06,VALID,917.96,VALID,0.0,VALID,78.392,VALID,515.164,VALID,24.744,VALID,150.0,VALID,1.267,
2017-06-09, 08:59:06,VALID,917.944,VALID,0.0,VALID,78.159,VALID,520.711,VALID,24.773,VALID,157.0,VALID,1.241,
2017-06-09, 09:00:06,VALID,917.938,VALID,0.0,VALID,78.251,VALID,524.486,VALID,24.761,VALID,136.0,VALID,1.115,
